FW4701 Weather Reports


Display with metric or nautical units.
time (UTC)temp
F
wind
direction
speed
MPH
gust
MPH
rain 1hr
in
rain 24hr
in
rain mn
in
humidity
%
barometer
mb
20260505223504 56 46 3.0 12.0 0.00 0.41 0.06 35 1008.5
20260505223015 96 131 0.0 2.0 0.00 0.00 0.00 30 1003.5
20260505223010 56 228 2.0 11.0 0.00 0.41 0.06 35 1008.7
20260505222503 56 277 2.0 8.0 0.00 0.41 0.06 36 1008.6
20260505222005 56 292 3.0 8.0 0.00 0.41 0.06 35 1008.6
20260505221510 56 296 2.0 7.0 0.00 0.41 0.06 35 1008.6
20260505221503 96 108 0.0 4.0 0.00 0.00 0.00 32 1003.6
20260505221004 56 267 3.0 7.0 0.00 0.41 0.06 34 1008.6
20260505220502 56 5 3.0 9.0 0.00 0.41 0.06 34 1008.7
20260505220107 96 203 0.0 2.0 0.00 0.00 0.00 32 1003.8
20260505220013 56 281 5.0 12.0 0.00 0.41 0.06 34 1008.9
20260505215505 56 274 5.0 12.0 0.00 0.41 0.06 35 1008.9
20260505215003 56 269 2.0 7.0 0.00 0.41 0.06 35 1008.7
20260505214554 95 209 0.0 2.0 0.00 0.00 0.00 32 1003.8
20260505214509 56 277 2.0 7.0 0.00 0.41 0.06 34 1008.7
20260505214006 56 299 3.0 9.0 0.00 0.41 0.06 34 1008.7
20260505213505 56 217 4.0 9.0 0.00 0.41 0.06 34 1008.9
20260505213049 95 203 0.0 1.0 0.00 0.00 0.00 34 1003.8
20260505213021 56 237 2.0 9.0 0.00 0.41 0.06 36 1008.9
20260505212503 56 49 2.0 10.0 0.00 0.41 0.06 33 1008.8
20260505212006 56 257 4.0 10.0 0.00 0.41 0.06 33 1008.8
20260505211545 93 143 0.0 1.0 0.00 0.00 0.00 36 1003.9
20260505211514 56 277 5.0 12.0 0.00 0.41 0.06 33 1008.8
20260505211003 56 240 4.0 12.0 0.00 0.41 0.06 33 1008.9
20260505210503 56 290 3.0 10.0 0.00 0.41 0.06 32 1008.9
20260505210048 93 195 0.0 2.0 0.00 0.00 0.00 35 1004.5
20260505210017 56 281 3.0 9.0 0.00 0.41 0.06 33 1008.9
20260505205504 56 278 3.0 9.0 0.00 0.41 0.06 33 1008.7
20260505205007 56 285 3.0 13.0 0.00 0.41 0.06 33 1009.0
20260505204547 93 210 0.0 3.0 0.00 0.00 0.00 34 1004.6
20260505204515 56 289 5.0 13.0 0.00 0.41 0.06 31 1009.0
20260505204008 56 276 5.0 13.0 0.00 0.41 0.06 31 1009.2
20260505203503 56 279 6.0 11.0 0.00 0.41 0.06 31 1009.0
20260505203035 94 226 0.0 4.0 0.00 0.00 0.00 37 1004.7
20260505203022 56 273 6.0 12.0 0.00 0.41 0.06 31 1009.1
20260505202504 56 248 2.0 12.0 0.00 0.41 0.06 32 1009.2
20260505202006 56 295 3.0 11.0 0.00 0.41 0.06 33 1009.1
20260505201530 93 216 1.0 5.0 0.00 0.00 0.00 36 1004.9
20260505201517 56 306 4.0 11.0 0.00 0.41 0.06 33 1009.2
20260505201004 56 291 2.0 9.0 0.00 0.41 0.06 35 1009.2
20260505200503 56 276 3.0 8.0 0.00 0.41 0.06 34 1009.2
20260505200026 92 265 0.0 5.0 0.00 0.00 0.00 38 1005.0
20260505200015 56 297 3.0 8.0 0.00 0.41 0.06 34 1009.1
20260505195504 56 302 3.0 8.0 0.00 0.41 0.06 33 1009.1
20260505195006 56 241 3.0 8.0 0.00 0.41 0.06 32 1009.1
20260505194523 91 201 0.0 5.0 0.00 0.00 0.00 37 1005.2
20260505194513 56 286 3.0 10.0 0.00 0.41 0.06 34 1009.0
20260505194008 56 281 4.0 11.0 0.00 0.41 0.06 33 1009.1
20260505193503 56 237 5.0 11.0 0.00 0.41 0.06 33 1009.2
20260505193031 91 198 1.0 4.0 0.00 0.00 0.00 38 1005.2
20260505193017 56 277 5.0 10.0 0.00 0.41 0.06 34 1009.4
20260505192506 56 285 3.0 12.0 0.00 0.41 0.06 34 1009.4
20260505192005 56 279 5.0 13.0 0.00 0.41 0.06 33 1009.4
20260505191519 91 217 0.0 5.0 0.00 0.00 0.00 41 1005.3
20260505191511 56 250 5.0 13.0 0.00 0.41 0.06 33 1009.5
20260505191005 56 287 5.0 11.0 0.00 0.41 0.06 34 1009.5
20260505190507 56 227 3.0 11.0 0.00 0.41 0.06 34 1009.4
20260505190025 56 258 7.0 11.0 0.00 0.41 0.06 35 1009.6
20260505190012 90 205 0.0 4.0 0.00 0.00 0.00 42 1005.5
20260505185504 56 269 2.0 13.0 0.00 0.41 0.06 34 1009.5
20260505185005 56 283 6.0 13.0 0.00 0.41 0.06 35 1009.5
20260505184518 56 277 5.0 10.0 0.00 0.41 0.06 35 1009.5
20260505184508 90 229 0.0 4.0 0.00 0.00 0.00 42 1005.7
20260505184004 56 338 5.0 12.0 0.00 0.41 0.06 35 1009.5
20260505183503 57 241 6.0 12.0 0.00 0.41 0.06 35 1009.6
20260505183016 57 237 4.0 10.0 0.00 0.41 0.06 38 1009.4
20260505183005 88 200 0.0 6.0 0.00 0.00 0.00 44 1006.0
20260505182506 56 240 4.0 9.0 0.00 0.41 0.06 37 1009.4
20260505182009 56 240 3.0 13.0 0.00 0.41 0.06 37 1009.4
20260505181520 56 269 3.0 13.0 0.00 0.41 0.06 36 1009.3
20260505181504 88 194 0.0 5.0 0.00 0.00 0.00 44 1006.0
20260505181004 56 286 6.0 12.0 0.00 0.41 0.06 36 1009.3
20260505180503 56 203 3.0 13.0 0.00 0.41 0.06 38 1009.3
20260505180016 56 344 8.0 13.0 0.00 0.41 0.06 36 1009.3
20260505180001 88 207 0.0 6.0 0.00 0.00 0.00 43 1006.1
20260505175504 56 239 3.0 9.0 0.00 0.41 0.06 36 1009.3
20260505175009 56 276 5.0 10.0 0.00 0.41 0.06 36 1009.1
20260505174557 88 187 0.0 4.0 0.00 0.00 0.00 44 1006.1
20260505174517 56 84 2.0 10.0 0.00 0.41 0.06 36 1009.1
20260505174007 56 263 5.0 10.0 0.00 0.41 0.06 36 1009.1
20260505173503 55 252 5.0 10.0 0.00 0.41 0.06 37 1009.2
20260505173053 88 143 0.0 5.0 0.00 0.00 0.00 44 1006.2
20260505173023 55 265 5.0 13.0 0.00 0.41 0.06 37 1009.1
20260505172506 55 213 8.0 13.0 0.00 0.41 0.06 37 1009.1
20260505172007 55 24 5.0 11.0 0.00 0.41 0.06 35 1008.9
20260505171551 87 143 0.0 8.0 0.00 0.00 0.00 46 1006.2
20260505171527 55 321 5.0 11.0 0.00 0.41 0.06 35 1009.0
20260505171004 55 263 5.0 11.0 0.00 0.41 0.06 36 1008.9
20260505170509 55 292 3.0 10.0 0.00 0.41 0.06 38 1009.0
20260505170047 86 208 0.0 4.0 0.00 0.00 0.00 47 1006.2
20260505170021 55 275 2.0 10.0 0.00 0.41 0.06 40 1008.8
20260505165509 55 269 3.0 11.0 0.00 0.41 0.06 41 1008.8
20260505165004 55 268 2.0 11.0 0.00 0.41 0.06 41 1008.7
20260505164554 84 164 0.0 4.0 0.00 0.00 0.00 48 1006.4
20260505164518 55 277 4.0 9.0 0.00 0.41 0.06 41 1008.9
20260505164004 54 352 1.0 13.0 0.00 0.41 0.06 45 1009.2
20260505163504 54 268 6.0 13.0 0.00 0.41 0.06 43 1009.2
20260505163037 83 210 0.0 5.0 0.00 0.00 0.00 48 1006.4
20260505163020 54 349 2.0 9.0 0.00 0.41 0.06 45 1009.2
20260505162504 54 24 3.0 9.0 0.00 0.41 0.06 44 1009.0
20260505162008 54 219 2.0 11.0 0.00 0.41 0.06 43 1009.0
20260505161540 81 152 0.0 6.0 0.00 0.00 0.00 50 1006.4
20260505161519 54 245 2.0 12.0 0.00 0.41 0.06 44 1009.0
20260505161007 54 256 4.0 12.0 0.00 0.41 0.06 42 1009.0
20260505160515 54 271 5.0 9.0 0.00 0.41 0.06 43 1008.9
20260505153021 79 214 0.0 7.0 0.00 0.00 0.00 49 1006.6
20260505152506 52 45 1.0 8.0 0.00 0.41 0.06 48 1008.6
20260505152013 52 337 2.0 10.0 0.00 0.41 0.06 48 1008.7
20260505151529 52 322 1.0 10.0 0.00 0.41 0.06 49 1008.8
20260505151517 78 199 3.0 7.0 0.00 0.00 0.00 49 1006.7
20260505151007 52 262 4.0 9.0 0.00 0.41 0.06 48 1008.9
20260505150510 52 335 2.0 5.0 0.00 0.41 0.06 54 1008.9
20260505140503 50 232 1.0 4.0 0.00 0.41 0.06 77 1009.4
20260505125004 47 257 1.0 3.0 0.03 0.40 0.05 73 1008.9
20260505124550 71 132 0.0 3.0 0.00 0.00 0.00 36 1006.0
20260505124507 47 281 1.0 4.0 0.04 0.40 0.05 72 1009.1
20260505124006 47 241 2.0 4.0 0.04 0.40 0.05 72 1009.0
20260505123503 47 274 0.0 6.0 0.04 0.39 0.04 71 1008.8
20260505123046 69 125 0.0 0.0 0.00 0.00 0.00 36 1005.8
20260505123011 47 290 1.0 6.0 0.04 0.39 0.04 70 1008.6
20260505122503 48 303 1.0 3.0 0.04 0.39 0.04 72 1008.8
20260505122004 48 261 0.0 4.0 0.04 0.39 0.04 70 1008.9
20260505121541 0 0.0 0.0 0.00 0.00 0.00 1005.9
20260505121503 48 271 1.0 6.0 0.04 0.39 0.04 68 1008.8
20260505120959 48 262 2.0 8.0 0.03 0.38 0.03 66 1009.3
20260505120503 48 302 2.0 8.0 0.03 0.38 0.03 65 1009.2
20260505120049 0 0.0 0.0 0.00 0.00 0.00 1005.7
20260505120013 49 306 3.0 8.0 0.02 0.37 0.02 64 1009.2
20260505115502 49 277 3.0 10.0 0.02 0.37 0.02 64 1008.7
20260505115003 49 259 5.0 10.0 0.02 0.37 0.02 63 1008.6
20260505114537 0 0.0 0.0 0.00 0.00 0.00 1005.6
20260505114505 50 265 3.0 8.0 0.01 0.36 0.01 62 1008.3
20260505114004 51 311 1.0 8.0 0.01 0.36 0.01 60 1007.8
20260505113505 51 298 3.0 8.0 0.00 0.35 0.00 59 1008.0
20260505113033 0 0.0 0.0 0.00 0.00 0.00 1005.4
20260505112504 51 282 1.0 4.0 0.00 0.35 0.00 56 1007.4
20260505112003 51 11 1.0 3.0 0.00 0.35 0.00 57 1007.2
20260505111528 51 344 0.0 9.0 0.00 0.35 0.00 57 1006.8
20260505111526 0 0.0 0.0 0.00 0.00 0.00 1005.6
20260505111006 51 352 4.0 9.0 0.00 0.35 0.00 55 1007.0
20260505110507 51 32 0.0 7.0 0.00 0.35 0.00 56 1006.6
20260505102008 52 41 1.0 5.0 0.00 0.35 0.00 58 1006.0
20260505101526 52 267 1.0 4.0 0.00 0.35 0.00 57 1006.4
20260505101515 70 166 0.0 4.0 0.00 0.00 0.00 44 1005.5
20260505101004 52 53 1.0 4.0 0.00 0.35 0.00 57 1006.2
20260505100504 52 298 0.0 4.0 0.00 0.35 0.00 57 1006.3
20260505100025 52 283 1.0 4.0 0.00 0.35 0.00 54 1006.2
20260505100014 70 136 0.0 4.0 0.00 0.00 0.00 44 1005.7
20260505095505 52 344 1.0 5.0 0.00 0.35 0.00 53 1006.1
20260505095003 53 10 1.0 6.0 0.00 0.35 0.00 53 1006.3
20260505094530 53 347 2.0 6.0 0.00 0.35 0.00 53 1006.4
20260505094511 71 187 1.0 3.0 0.00 0.00 0.00 44 1005.8
20260505094002 53 266 2.0 6.0 0.00 0.35 0.00 51 1006.2
20260505093503 53 273 1.0 7.0 0.00 0.35 0.00 51 1006.1
20260505093007 71 132 0.0 4.0 0.00 0.00 0.00 44 1005.9
20260505092504 54 300 3.0 9.0 0.00 0.35 0.00 50 1006.1
20260505092004 54 344 3.0 8.0 0.00 0.35 0.00 51 1006.1
20260505091529 54 265 1.0 6.0 0.00 0.35 0.00 52 1005.9
20260505091504 71 148 1.0 4.0 0.00 0.00 0.00 44 1006.0
20260505091003 55 10 1.0 12.0 0.00 0.35 0.00 50 1005.8
20260505090504 55 309 2.0 12.0 0.00 0.35 0.00 47 1005.8
20260505090035 55 307 5.0 12.0 0.00 0.35 0.00 47 1005.8
20260505090004 71 151 0.0 4.0 0.00 0.00 0.00 44 1006.1
20260505085510 55 130 2.0 13.0 0.00 0.35 0.00 47 1005.4
20260505085006 56 311 4.0 14.0 0.00 0.35 0.00 47 1005.3
20260505084518 56 346 4.0 14.0 0.00 0.35 0.00 47 1005.0
20260505084503 70 168 0.0 1.0 0.00 0.00 0.00 45 1006.2
20260505084008 57 275 3.0 10.0 0.00 0.35 0.00 48 1005.0
20260505083507 57 304 4.0 10.0 0.00 0.35 0.00 47 1004.7
20260505083104 70 150 0.0 6.0 0.00 0.00 0.00 45 1006.4
20260505083005 57 13 1.0 7.0 0.00 0.35 0.00 48 1004.6
20260505082503 57 283 2.0 4.0 0.00 0.35 0.00 47 1004.4
20260505082004 57 320 0.0 4.0 0.00 0.35 0.00 48 1003.9
20260505081557 69 124 0.0 4.0 0.00 0.00 0.00 46 1006.2
20260505081511 58 346 0.0 4.0 0.00 0.35 0.00 47 1004.1
20260505081003 58 316 1.0 8.0 0.00 0.35 0.00 46 1004.0
20260505080504 58 319 1.0 8.0 0.00 0.35 0.00 46 1004.0
20260505080108 69 127 0.0 4.0 0.00 0.00 0.00 47 1006.2
20260505080009 58 289 2.0 8.0 0.00 0.35 0.00 46 1003.7
20260505075503 58 275 1.0 6.0 0.00 0.35 0.00 46 1003.6
20260505075004 58 25 1.0 8.0 0.00 0.35 0.00 46 1003.5
20260505074549 69 159 0.0 3.0 0.00 0.00 0.00 49 1006.5
20260505074517 58 306 1.0 8.0 0.00 0.35 0.00 46 1003.4
20260505073046 69 149 0.0 4.0 0.00 0.00 0.00 52 1006.8
20260505073030 59 289 1.0 7.0 0.00 0.35 0.00 46 1003.4
20260505072506 59 261 3.0 7.0 0.00 0.35 0.00 45 1003.4
20260505072003 59 302 2.0 5.0 0.00 0.35 0.00 44 1003.2
20260505071542 69 178 2.0 6.0 0.00 0.00 0.00 53 1006.8
20260505071511 59 308 1.0 7.0 0.00 0.35 0.00 45 1003.2
20260505071003 59 281 3.0 7.0 0.00 0.35 0.00 44 1003.2
20260505070505 59 276 2.0 6.0 0.00 0.35 0.00 44 1003.0
20260505070044 69 163 0.0 3.0 0.00 0.00 0.00 56 1007.1
20260505070009 59 310 1.0 6.0 0.00 0.35 0.00 44 1002.8
20260505065503 60 267 1.0 7.0 0.00 0.35 0.00 44 1002.9
20260505065004 60 348 2.0 7.0 0.00 0.35 0.00 43 1002.9
20260505064535 69 148 0.0 3.0 0.00 0.00 0.00 57 1007.2
20260505064531 60 313 1.0 8.0 0.00 0.35 0.00 43 1002.7
20260505064004 60 261 3.0 8.0 0.00 0.35 0.00 42 1002.8
20260505063504 60 348 3.0 8.0 0.00 0.35 0.00 42 1002.8
20260505063034 70 140 0.0 3.0 0.00 0.00 0.00 57 1007.5
20260505063022 60 263 3.0 11.0 0.00 0.35 0.00 43 1002.7
20260505062508 60 294 4.0 11.0 0.00 0.35 0.00 43 1002.7
20260505062004 60 256 2.0 8.0 0.00 0.35 0.00 46 1002.6
20260505061535 60 350 2.0 6.0 0.00 0.35 0.00 46 1002.7
20260505061531 70 141 1.0 4.0 0.00 0.00 0.00 57 1007.5
20260505061003 60 271 1.0 7.0 0.00 0.35 0.00 45 1002.7
20260505060503 61 286 3.0 7.0 0.00 0.35 0.00 45 1002.7
20260505060034 70 113 4.0 6.0 0.00 0.00 0.00 57 1007.5
20260505060008 61 280 2.0 7.0 0.00 0.35 0.00 45 1002.6
20260505055503 61 275 1.0 6.0 0.00 0.35 0.00 46 1002.5
20260505055003 61 282 2.0 6.0 0.00 0.35 0.00 45 1002.5
20260505054520 71 105 2.0 6.0 0.00 0.00 0.00 57 1007.4
20260505054514 61 209 1.0 4.0 0.00 0.35 0.00 46 1002.6
20260505054007 61 229 1.0 7.0 0.00 0.35 0.00 45 1002.6
20260505053507 61 266 2.0 7.0 0.00 0.35 0.00 44 1002.7
20260505053019 72 121 0.0 4.0 0.00 0.00 0.00 56 1007.5
20260505053015 61 270 2.0 7.0 0.00 0.35 0.00 43 1002.5
20260505052508 62 265 3.0 7.0 0.00 0.35 0.00 43 1002.4
20260505052004 62 294 2.0 7.0 0.00 0.35 0.00 44 1002.2
20260505051522 62 281 2.0 6.0 0.00 0.35 0.00 45 1002.1
20260505051517 72 176 2.0 6.0 0.00 0.00 0.00 55 1007.2
20260505051014 62 272 2.0 9.0 0.00 0.35 0.00 46 1002.1
20260505050506 62 291 3.0 9.0 0.00 0.35 0.00 46 1001.8
20260505041519 63 265 4.0 12.0 0.00 0.35 0.35 66 1001.3
20260505041507 74 155 1.0 5.0 0.00 0.00 0.00 53 1007.7
20260505041007 63 251 3.0 10.0 0.00 0.35 0.35 67 1001.4
20260505040507 63 294 3.0 7.0 0.00 0.35 0.35 67 1001.2
20260505040024 63 259 2.0 8.0 0.00 0.35 0.35 68 1001.3
20260505040002 74 148 1.0 6.0 0.00 0.00 0.00 53 1007.8
20260505035507 63 200 2.0 9.0 0.00 0.35 0.35 67 1001.2
20260505035007 63 233 4.0 9.0 0.00 0.35 0.35 68 1001.5
20260505034618 74 200 0.0 5.0 0.00 0.00 0.00 53 1007.7
20260505034509 63 220 3.0 9.0 0.00 0.35 0.35 68 1001.5
20260505034004 63 171 3.0 8.0 0.00 0.35 0.35 68 1001.3
20260505033503 63 240 4.0 9.0 0.00 0.35 0.35 68 1001.2
20260505033058 74 143 0.0 5.0 0.00 0.00 0.00 53 1007.7
20260505033012 63 250 4.0 9.0 0.00 0.35 0.35 68 1001.0
20260505032503 63 232 3.0 9.0 0.00 0.35 0.35 68 1000.7
20260505032003 63 230 2.0 10.0 0.00 0.35 0.35 68 1000.6
20260505031556 74 154 1.0 5.0 0.00 0.00 0.00 52 1007.4
20260505031536 63 232 4.0 10.0 0.00 0.35 0.35 69 1000.5
20260505031003 63 289 4.0 9.0 0.00 0.35 0.35 69 1000.5
20260505030507 63 251 3.0 9.0 0.00 0.35 0.35 70 1000.7
20260505030054 74 147 0.0 4.0 0.00 0.00 0.00 53 1007.5
20260505030019 63 259 3.0 11.0 0.00 0.35 0.35 71 1000.9
20260505025507 63 244 4.0 11.0 0.00 0.35 0.35 71 1000.9
20260505025008 63 215 3.0 8.0 0.00 0.35 0.35 71 1001.1
20260505024551 74 151 0.0 4.0 0.00 0.00 0.00 53 1007.4
20260505024533 63 190 3.0 8.0 0.00 0.35 0.35 71 1000.9
20260505024006 64 250 2.0 7.0 0.00 0.35 0.35 71 1000.7
20260505023503 64 219 2.0 7.0 0.00 0.35 0.35 71 1000.5
20260505023052 75 159 0.0 3.0 0.00 0.00 0.00 53 1007.3
20260505023010 64 196 2.0 8.0 0.00 0.35 0.35 72 1000.3
20260505022503 64 211 1.0 8.0 0.00 0.35 0.35 71 1000.3
20260505022003 64 217 2.0 7.0 0.00 0.35 0.35 72 1000.0
20260505021547 75 124 1.0 7.0 0.00 0.00 0.00 52 1007.3
20260505021528 64 196 2.0 7.0 0.00 0.35 0.35 72 999.8
20260505021011 64 194 2.0 6.0 0.00 0.35 0.35 72 999.4
20260505020507 64 193 3.0 7.0 0.00 0.35 0.35 72 999.5
20260505020046 76 110 1.0 4.0 0.00 0.00 0.00 52 1006.7
20260505020028 64 186 1.0 10.0 0.00 0.35 0.35 72 999.4
20260505015508 64 229 4.0 10.0 0.00 0.35 0.35 72 999.4
20260505015007 64 212 2.0 10.0 0.00 0.35 0.35 73 999.4
20260505014542 76 106 1.0 6.0 0.00 0.00 0.00 51 1007.1
20260505014529 64 214 2.0 9.0 0.00 0.35 0.35 73 999.4
20260505014012 64 250 4.0 14.0 0.00 0.35 0.35 73 999.3
20260505013509 64 204 2.0 14.0 0.00 0.35 0.35 73 999.3
20260505013039 77 86 1.0 6.0 0.00 0.00 0.00 50 1006.9
20260505013025 64 243 5.0 12.0 0.00 0.35 0.35 73 999.2
20260505012506 64 179 4.0 12.0 0.00 0.35 0.35 74 999.1
20260505012003 64 235 5.0 11.0 0.00 0.35 0.35 76 999.0
20260505011555 77 146 1.0 5.0 0.00 0.00 0.00 49 1006.6
20260505011516 64 188 2.0 11.0 0.00 0.35 0.35 76 999.0
20260505011005 64 171 4.0 10.0 0.00 0.35 0.35 77 998.8
20260505010503 64 171 5.0 12.0 0.00 0.35 0.35 77 998.7
20260505010035 78 155 0.0 4.0 0.00 0.00 0.00 48 1006.5
20260505010018 64 186 5.0 12.0 0.00 0.35 0.35 78 998.8
20260505005504 63 167 3.0 9.0 0.00 0.35 0.35 79 998.8
20260505005008 63 196 4.0 9.0 0.00 0.35 0.35 79 998.8
20260505004541 63 171 3.0 7.0 0.00 0.35 0.35 80 998.7
20260505004534 79 155 1.0 6.0 0.00 0.00 0.00 47 1006.5
20260505004006 63 180 2.0 6.0 0.00 0.35 0.35 80 998.4
20260505003509 63 148 2.0 9.0 0.00 0.35 0.35 81 998.3
20260505003029 80 172 1.0 5.0 0.00 0.00 0.00 46 1006.9
20260505003025 63 209 3.0 9.0 0.00 0.35 0.35 82 998.3
20260505002511 63 195 2.0 11.0 0.04 0.35 0.35 83 998.2
20260505002012 63 189 4.0 12.0 0.24 0.35 0.35 85 998.4
20260505001527 81 162 2.0 5.0 0.00 0.00 0.00 44 1007.1
20260505001010 63 184 3.0 7.0 0.35 0.35 0.35 87 998.3
20260505000506 63 199 1.0 4.0 0.35 0.35 0.35 88 998.3
20260505000034 81 154 3.0 7.0 0.00 0.00 0.00 43 1007.1
20260504235503 63 195 0.0 2.0 0.35 0.35 0.35 87 997.8
20260504235004 62 129 0.0 2.0 0.35 0.35 0.35 86 997.7
20260504234528 82 130 4.0 9.0 0.00 0.00 0.00 43 1007.3
20260504234519 62 111 0.0 2.0 0.35 0.35 0.35 85 997.9
20260504234007 62 111 0.0 5.0 0.35 0.35 0.35 82 998.2
20260504233513 63 90 0.0 6.0 0.35 0.35 0.35 80 998.3
20260504233024 63 186 2.0 14.0 0.35 0.35 0.35 76 998.8
20260504233019 82 176 2.0 7.0 0.00 0.00 0.00 43 1007.4
20260504232505 65 209 3.0 22.0 0.31 0.31 0.31 69 999.4
20260504232003 69 263 7.0 22.0 0.10 0.10 0.10 61 999.6
20260504231516 84 158 2.0 7.0 0.00 0.00 0.00 40 1007.6
20260504231506 72 267 5.0 11.0 0.00 0.00 0.00 53 999.0
20260504231003 73 67 3.0 10.0 0.00 0.00 0.00 51 998.0
20260504230503 74 56 4.0 10.0 0.00 0.00 0.00 48 998.2
20260504230015 75 255 2.0 11.0 0.00 0.00 0.00 46 997.9
20260504230011 84 200 0.0 8.0 0.00 0.00 0.00 41 1007.6
20260504225503 75 227 3.0 16.0 0.00 0.00 0.00 46 997.9
20260504225005 76 179 5.0 17.0 0.00 0.00 0.00 43 997.9
20260504224515 77 262 8.0 21.0 0.00 0.00 0.00 41 998.0
20260504224512 83 169 5.0 10.0 0.00 0.00 0.00 42 1007.7
20260504224006 78 158 7.0 22.0 0.00 0.00 0.00 40 998.0